Weather History for Hamilton Island, QU

Change the Weather History Date:

Sunday, September 22, 2013

  Actual Average Record
Temperature  
Mean Temperature 74 °F -  
Max Temperature 78 °F - - ()
Min Temperature 69 °F - - ()
Cooling Degree Days 8    
Growing Degree Days 24 (Base 50)    
Moisture  
Dew Point 70 °F    
Average Humidity 89    
Maximum Humidity 100    
Minimum Humidity 74    
Precipitation  
Precipitation 0.00 in - - ()
Sea Level Pressure  
Sea Level Pressure 29.91 in    
Wind  
Wind Speed 7 mph ()    
Max Wind Speed 18 mph    
Max Gust Speed -    
T = Trace of Precipitation, MM = Missing Value Source: Averaged Metar Reports

Daily Weather History Graph

Daily Weather History Graph

Search for Another Location

Airport:

Trip Planner

Search our weather history database for the weather conditions in past years. The results will help you decide how hot, cold, wet, or windy it might be!

Date:

Astronomy

Sep. 22, 2013 Rise Set
Actual Time 5:54 AM AEST 6:00 PM AEST
Civil Twilight 5:32 AM AEST 6:22 PM AEST
Nautical Twilight 5:06 AM AEST 6:47 PM AEST
Astronomical Twilight 4:40 AM AEST 7:13 PM AEST
Moon 8:35 PM AEST (9/22) 7:29 AM AEST (9/22)
Length of Visible Light 12h 50m
Length of Day
12h 06m
Waning Gibbous, 92% of the Moon is Illuminated
Sep 22
Waning Gibbous
Sep 27
Last Quarter
Oct 5
New
Oct 12
First Quarter
Oct 19
Full

Hourly Weather History & Observations

Time (AEST) Temp. Dew Point Humidity Pressure Visibility Wind Dir Wind Speed Gust Speed Precip Events Conditions
12:00 AM 72 °F 70 °F 91% 29.90 in - East 9.2 mph - -  
12:00 AM 73.4 °F 69.8 °F 88% 29.89 in - East 9.2 mph - N/A   Unknown
12:30 AM 71.6 °F 69.8 °F 94% 29.89 in - ENE 5.8 mph - N/A   Unknown
1:00 AM 71.6 °F 69.8 °F 94% 29.89 in - NE 4.6 mph - N/A   Unknown
1:30 AM 71.6 °F 69.8 °F 94% 29.89 in - NE 3.5 mph - N/A   Unknown
2:00 AM 71.6 °F 69.8 °F 94% 29.86 in - Calm Calm - N/A   Unknown
2:30 AM 71.6 °F 69.8 °F 94% 29.86 in - Calm Calm - N/A   Unknown
3:00 AM 71 °F 70 °F 95% 29.86 in - Calm Calm - -  
3:00 AM 71.6 °F 69.8 °F 94% 29.86 in - Calm Calm - N/A   Unknown
3:30 AM 69.8 °F 69.8 °F 100% 29.86 in - Calm Calm - N/A   Unknown
4:00 AM 69.8 °F 69.8 °F 100% 29.86 in - Calm Calm - N/A   Unknown
4:30 AM 69.8 °F 69.8 °F 100% 29.89 in - Calm Calm - N/A   Unknown
5:00 AM 69.8 °F 69.8 °F 100% 29.89 in - NE 4.6 mph - N/A   Unknown
5:30 AM 69.8 °F 69.8 °F 100% 29.89 in - Calm Calm - N/A   Unknown
6:00 AM 70 °F 70 °F 98% 29.91 in - Calm Calm - -  
6:00 AM 69.8 °F 69.8 °F 100% 29.92 in - Calm Calm - N/A   Unknown
6:30 AM 71.6 °F 71.6 °F 100% 29.92 in - Calm Calm - N/A   Unknown
7:00 AM 73.4 °F 71.6 °F 94% 29.92 in - Calm Calm - N/A   Unknown
7:30 AM 73.4 °F 69.8 °F 88% 29.95 in - East 1.2 mph - N/A   Unknown
8:00 AM 73.4 °F 69.8 °F 88% 29.95 in - WSW 4.6 mph - N/A   Unknown
8:30 AM 73.4 °F 69.8 °F 88% 29.95 in - SSW 5.8 mph - N/A   Unknown
9:00 AM 78 °F 72 °F 78% 29.95 in - SSE 5.8 mph - -  
9:00 AM 78.8 °F 73.4 °F 83% 29.95 in - SSE 5.8 mph - N/A   Unknown
9:30 AM 77.0 °F 71.6 °F 83% 29.95 in - SE 6.9 mph - N/A   Unknown
10:00 AM 75.2 °F 69.8 °F 83% 29.95 in - SE 6.9 mph - N/A   Unknown
10:30 AM 75.2 °F 69.8 °F 83% 29.95 in - SE 8.1 mph - N/A   Unknown
11:00 AM 77.0 °F 71.6 °F 83% 29.95 in - SE 9.2 mph - N/A   Unknown
11:30 AM 78.8 °F 71.6 °F 78% 29.92 in - SE 11.5 mph - N/A   Unknown
12:00 PM 78 °F 71 °F 74% 29.92 in - SE 11.5 mph - -  
12:00 PM 78.8 °F 71.6 °F 78% 29.92 in - SE 11.5 mph - N/A   Unknown
12:30 PM 78.8 °F 71.6 °F 78% 29.92 in - SE 11.5 mph - N/A   Unknown
1:00 PM 77.0 °F 69.8 °F 78% 29.89 in - East 13.8 mph - N/A   Unknown
1:30 PM 77.0 °F 69.8 °F 78% 29.89 in - East 13.8 mph - N/A   Unknown
2:00 PM 77.0 °F 69.8 °F 78% 29.86 in - East 17.3 mph - N/A   Unknown
2:30 PM 75.2 °F 69.8 °F 83% 29.86 in - East 17.3 mph - N/A   Unknown
3:00 PM 77.0 °F 69.8 °F 78% 29.86 in - East 16.1 mph - N/A   Unknown
3:30 PM 75.2 °F 69.8 °F 83% 29.86 in - East 18.4 mph - N/A   Unknown
4:30 PM 75.2 °F 69.8 °F 83% 29.86 in - East 17.3 mph - N/A   Unknown
5:00 PM 75.2 °F 69.8 °F 83% 29.86 in - East 16.1 mph - N/A   Unknown
5:30 PM 75.2 °F 69.8 °F 83% 29.89 in - East 16.1 mph - N/A   Unknown
6:30 PM 75.2 °F 71.6 °F 89% 29.89 in - East 16.1 mph - N/A   Unknown
7:00 PM 73.4 °F 71.6 °F 94% 29.92 in - East 16.1 mph - N/A   Unknown
7:30 PM 73.4 °F 69.8 °F 88% 29.92 in - East 15.0 mph - N/A   Unknown
9:00 PM 74 °F 71 °F 86% 29.94 in - East 15.0 mph - -  
9:00 PM 73.4 °F 69.8 °F 88% 29.95 in - East 15.0 mph - N/A   Unknown
9:30 PM 73.4 °F 69.8 °F 88% 29.95 in - East 16.1 mph - N/A   Unknown
10:00 PM 73.4 °F 71.6 °F 94% 29.95 in - East 13.8 mph - N/A   Unknown
10:30 PM 73.4 °F 71.6 °F 94% 29.95 in - East 12.7 mph - N/A   Unknown
11:00 PM 73.4 °F 69.8 °F 88% 29.95 in - East 13.8 mph - N/A   Unknown
11:30 PM 73.4 °F 71.6 °F 94% 29.98 in - ESE 13.8 mph - N/A   Unknown